Laurinburg-Maxton, NC

7:08 AM EDT on March 28, 2017 (GMT -0400)
Laurinburg-Maxton

Weather History for KMEB - September, 2013

Change the Weather History Date:

Thursday, September 5, 2013

  Actual Average (KHFF) Record (KHFF)
Temperature  
Mean Temperature 80 °F -  
Max Temperature 90 °F 82 °F 96 °F (2014)
Min Temperature 68 °F 65 °F 54 °F (2010)
Cooling Degree Days 14    
Growing Degree Days 30 (Base 50)    
Moisture  
Dew Point 69 °F    
Average Humidity 85    
Maximum Humidity 100    
Minimum Humidity 43    
Precipitation  
Precipitation 0.00 in - - ()
Sea Level Pressure  
Sea Level Pressure 30.06 in    
Wind  
Wind Speed 2 mph (North)    
Max Wind Speed 8 mph    
Max Gust Speed -    
Visibility 5 miles    
Events Fog    
Averages and records for this station are not official NWS values.
T = Trace of Precipitation, MM = Missing Value Source: NWS Daily Summary

Daily Weather History Graph

Daily Weather History Graph

Search for Another Location

Airport or City:

Trip Planner

Search our weather history database for the weather conditions in past years. The results will help you decide how hot, cold, wet, or windy it might be!

Date:

Astronomy

Sep. 05, 2013 Rise Set
Actual Time 6:53 AM EDT 7:38 PM EDT
Civil Twilight 6:27 AM EDT 8:03 PM EDT
Nautical Twilight 5:57 AM EDT 8:33 PM EDT
Astronomical Twilight 5:26 AM EDT 9:04 PM EDT
Moon 7:00 AM EDT (9/5) 7:32 PM EDT (9/5)
Length of Visible Light 13h 35m
Length of Day
12h 44m
New Moon, 0% of the Moon is Illuminated
Sep 5
New Moon
Sep 12
First Quarter
Sep 19
Full
Sep 26
Last Quarter
Oct 4
New

Hourly Weather History & Observations

Time (EDT) Temp. Heat Index Dew Point Humidity Pressure Visibility Wind Dir Wind Speed Gust Speed Precip Events Conditions
12:52 AM 73.0 °F - 72.0 °F 96% 30.08 in 7.0 mi Calm Calm - N/A   Clear
1:52 AM 72.0 °F - 72.0 °F 100% 30.06 in 4.0 mi Calm Calm - N/A   Clear
2:07 AM 71.6 °F - 69.8 °F 94% 30.07 in 1.8 mi Calm Calm - N/A   Clear
2:17 AM 71.6 °F - 69.8 °F 94% 30.07 in 3.0 mi Calm Calm - N/A   Clear
2:52 AM 71.1 °F - 70.0 °F 96% 30.06 in 3.0 mi NNE 3.5 mph - N/A   Clear
3:34 AM 71.6 °F - 71.6 °F 100% 30.06 in 2.5 mi Calm Calm - N/A   Partly Cloudy
3:50 AM 69.8 °F - 69.8 °F 100% 30.06 in 1.8 mi Calm Calm - N/A   Scattered Clouds
3:52 AM 70.0 °F - 70.0 °F 100% 30.05 in 2.0 mi Calm Calm - N/A   Scattered Clouds
3:55 AM 69.8 °F - 69.8 °F 100% 30.06 in 3.0 mi Calm Calm - N/A   Mostly Cloudy
4:19 AM 69.8 °F - 69.8 °F 100% 30.06 in 1.5 mi Calm Calm - N/A   Mostly Cloudy
4:29 AM 69.8 °F - 69.8 °F 100% 30.06 in 3.0 mi North 3.5 mph - N/A   Mostly Cloudy
4:52 AM 71.1 °F - 71.1 °F 100% 30.05 in 2.0 mi Calm Calm - N/A   Overcast
4:56 AM 71.6 °F - 71.6 °F 100% 30.06 in 0.8 mi Calm Calm - N/A   Overcast
5:04 AM 71.6 °F - 71.6 °F 100% 30.05 in 0.5 mi Calm Calm - N/A Fog Fog
5:40 AM 69.8 °F - 69.8 °F 100% 30.06 in 1.2 mi North 3.5 mph - N/A   Mostly Cloudy
5:42 AM 69.8 °F - 69.8 °F 100% 30.05 in 3.0 mi North 3.5 mph - N/A   Mostly Cloudy
5:50 AM 69.8 °F - 69.8 °F 100% 30.05 in 4.0 mi North 3.5 mph - N/A   Scattered Clouds
5:52 AM 70.0 °F - 70.0 °F 100% 30.05 in 4.0 mi North 3.5 mph - N/A   Partly Cloudy
6:15 AM 69.8 °F - 69.8 °F 100% 30.06 in 2.5 mi Calm Calm - N/A   Partly Cloudy
6:24 AM 69.8 °F - 69.8 °F 100% 30.06 in 4.0 mi Calm Calm - N/A   Clear
6:52 AM 69.1 °F - 69.1 °F 100% 30.07 in 4.0 mi Calm Calm - N/A   Clear
7:07 AM 69.8 °F - 69.8 °F 100% 30.07 in 2.5 mi North 3.5 mph - N/A   Clear
7:15 AM 69.8 °F - 69.8 °F 100% 30.08 in 3.0 mi Calm Calm - N/A   Clear
7:32 AM 71.6 °F - 69.8 °F 94% 30.08 in 2.5 mi NNW 3.5 mph - N/A   Clear
7:44 AM 69.8 °F - 69.8 °F 100% 30.09 in 3.0 mi North 3.5 mph - N/A   Clear
7:52 AM 70.0 °F - 70.0 °F 100% 30.09 in 2.5 mi Calm Calm - N/A   Clear
8:05 AM 71.6 °F - 69.8 °F 94% 30.09 in 3.0 mi NNE 3.5 mph - N/A   Clear
8:52 AM 75.9 °F - 72.0 °F 87% 30.09 in 6.0 mi North 4.6 mph - N/A   Clear
9:52 AM 81.0 °F 85.2 °F 72.0 °F 74% 30.10 in 8.0 mi North 4.6 mph - N/A   Clear
10:52 AM 84.9 °F 87.1 °F 66.0 °F 53% 30.10 in 10.0 mi NE 4.6 mph - N/A   Clear
11:52 AM 86.0 °F 86.3 °F 62.1 °F 44% 30.10 in 10.0 mi NE 3.5 mph - N/A   Clear
12:52 PM 86.0 °F 86.8 °F 63.0 °F 46% 30.09 in 10.0 mi ESE 5.8 mph - N/A   Clear
1:52 PM 88.0 °F 89.3 °F 64.0 °F 45% 30.07 in 10.0 mi West 4.6 mph - N/A   Clear
2:52 PM 90.0 °F 91.7 °F 64.9 °F 43% 30.05 in 10.0 mi NW 6.9 mph - N/A   Mostly Cloudy
3:52 PM 88.0 °F 89.6 °F 64.9 °F 46% 30.03 in 10.0 mi WSW 8.1 mph - N/A   Partly Cloudy
4:52 PM 88.0 °F 89.3 °F 64.0 °F 45% 30.03 in 10.0 mi West 8.1 mph - N/A   Clear
5:52 PM 87.1 °F 88.3 °F 64.0 °F 46% 30.03 in 10.0 mi West 5.8 mph - N/A   Clear
6:52 PM 82.9 °F 85.0 °F 66.0 °F 56% 30.03 in 10.0 mi NW 5.8 mph - N/A   Clear
7:52 PM 79.0 °F - 66.0 °F 64% 30.04 in 10.0 mi NNW 3.5 mph - N/A   Clear
8:52 PM 75.0 °F - 68.0 °F 79% 30.06 in 10.0 mi Calm Calm - N/A   Clear
9:52 PM 71.1 °F - 69.1 °F 93% 30.07 in 8.0 mi Calm Calm - N/A   Clear
10:52 PM 70.0 °F - 64.9 °F 84% 30.07 in 10.0 mi North 4.6 mph - N/A   Clear
11:52 PM 68.0 °F - 64.9 °F 90% 30.08 in 10.0 mi Calm Calm - N/A   Clear